Regional Weather Roundup
Issued by NWS

Home | Current Version | Previous Version | Text Only | Print | Product List | Glossary On
Versions: 1 2 3 4 5 6 7 8 9 10 11 12 13 14 15 16 17 18 19 20 21 22 23 24 25 26 27 28 29 30 31 32 33 34 35 36 37 38 39 40 41 42 43 44 45 46 47 48 49 50
000
ASUS43 KMPX 261501
RWRMN
WEATHER ROUNDUP FOR MINNESOTA
NATIONAL WEATHER SERVICE TWIN CITIES/CHANHASSEN MN
1000 AM CDT TUE MAY 26 2015


NOTE: "FAIR" INDICATES FEW OR NO CLOUDS BELOW 12,000 FEET WITH NO
SIGNIFICANT WEATHER AND/OR OBSTRUCTIONS TO VISIBILITY. N/A MEANS
CURRENT SKY AND/OR WEATHER CONDITIONS ARE NOT AVAILABLE.

MNZ060>063-068>070-261600-
   Twin Cities Metro

CITY           SKY/WX    TMP DP  RH WIND       PRES   REMARKS
TWIN CITIES    CLOUDY    58  56  93 VRB6      29.81F
ST PAUL        LGT RAIN  57  57 100 N8        29.82S
CRYSTAL        CLOUDY    56  54  93 NE5       29.81S
BLAINE         CLOUDY    55  55 100 N9        29.82F FOG
LAKEVILLE      LGT RAIN  59  57  94 CALM      29.80F
EDEN PRAIRIE   CLOUDY    59  56  89 NE6       29.80F FOG
SOUTH ST PAUL  CLOUDY    60  58  94 N3        29.80F FOG
LAKE ELMO      CLOUDY    59  57  94 NE5       29.83S FOG
$$
MNZ001>005-007-008-013>017-022>024-027-028-261600-
   Northwest Minnesota

CITY           SKY/WX    TMP DP  RH WIND       PRES   REMARKS
BEMIDJI        PTSUNNY   60  52  74 SE5       29.86F
HALLOCK        SUNNY     68  55  64 SW6       29.79S
ROSEAU         SUNNY     68  54  60 SW12      29.81S
WARROAD        SUNNY     66  54  63 SW9       29.81F
THIEF RVR FALL MOSUNNY   66  48  52 S14       29.83F
CROOKSTON      SUNNY     66  52  59 S16       29.82F
FOSSTON        PTSUNNY   61  52  72 S7        29.85F
DETROIT LAKES  PTSUNNY   61  52  72 S7        29.87F
MOORHEAD       PTSUNNY   63  52  67 S5        29.86S
PARK RAPIDS    PTSUNNY   61  52  72 NE5       29.86F
MAHNOMEN       FAIR      60  52  74 S5        29.86S
$$
MNZ006-009>011-018-025>026-261600-
   North Central Minnesota

CITY           SKY/WX    TMP DP  RH WIND       PRES   REMARKS
BAUDETTE       MOSUNNY   65  51  60 S10       29.84S
FLAG ISLAND    SUNNY     57  52  82 S14       29.80F
INTL FALLS     MOSUNNY   64  52  64 VRB5      29.85F
WASKISH        MOSUNNY   61  55  82 CALM      29.86F
BIG FORK       FAIR      63  55  77 CALM      29.87S
LONGVILLE      PTSUNNY   61  54  77 CALM      29.86F
GRAND RAPIDS   PTSUNNY   61  52  72 CALM      29.87F
CRANE LAKE     MOSUNNY   61  54  77 CALM      29.88S
ORR            PTSUNNY   61  52  72 CALM      29.85S
COOK           PTSUNNY   63  54  72 E5        29.87F
WALKER         FAIR      57  51  78 SE3       29.87S
$$
MNZ012-019>021-037-261600-
   Northeast Minnesota

CITY           SKY/WX    TMP DP  RH WIND       PRES   REMARKS
DULUTH         PTSUNNY   59  53  80 E9        29.86R
ELY            PTSUNNY   61  52  72 NE6       29.87S
HIBBING        PTSUNNY   62  52  69 E5        29.87R
EVELETH        PTSUNNY   61  54  77 NE7       29.88S
DULUTH HARBOR  CLOUDY    54  52  94 E3        29.87F
TWO HARBORS    CLOUDY    63  57  82 E5        29.85R
SILVER BAY     CLOUDY    63  55  77 E5        29.85S
GRAND MARAIS     N/A     50  47  89 SW7       29.85S
G MARAIS ARPRT PTSUNNY   61  50  67 N8        29.88S
$$
MNZ029>031-032-039>041-046>048-054>057-064-261600-
   West Central Minnesota

CITY           SKY/WX    TMP DP  RH WIND       PRES   REMARKS
FERGUS FALLS   PTSUNNY   63  52  67 E7        29.86F
WHEATON        CLOUDY    61  52  72 N8        29.87F
MORRIS         CLOUDY    61  55  82 N10       29.83F
ALEXANDRIA     PTSUNNY   61  53  75 N10       29.85F
ELBOW LAKE     FAIR      61  54  78 NE5       29.85F
WADENA         PTSUNNY   59  54  82 NE5       29.86F
GLENWOOD       PTSUNNY   59  54  82 NE12      29.84S
APPLETON       CLOUDY    61  54  77 NE8       29.84S
BENSON         CLOUDY    61  52  72 E6        29.84S
ORTONVILLE     CLOUDY    59  52  77 N9        29.85F
MADISON        CLOUDY    59  54  82 N8        29.85R
WILLMAR        PTSUNNY   57  54  88 NE8       29.85S
$$
MNZ033>034-036-042>043-049>051-058-059-261600-
   Central Minnesota

CITY           SKY/WX    TMP DP  RH WIND       PRES   REMARKS
ST CLOUD       CLOUDY    57  53  86 NE8       29.83F
SAUK CENTRE    PTSUNNY   59  53  79 NE12      29.84S
PAYNESVILLE    CLOUDY    54  52  92 N9        29.84S
AITKIN         PTSUNNY   61  54  77 NE7       29.84F
PINE RIVER     PTSUNNY   59  54  82 NE5       29.89F
BRAINERD       PTSUNNY   60  54  80 N8        29.85F
STAPLES        PTSUNNY   59  54  82 NE6       29.85F
LONG PRAIRIE   PTSUNNY   57  52  82 N8        29.85S
LITTLE FALLS   CLOUDY    55  52  88 NE7       29.84F
BUFFALO        CLOUDY    55  51  88 N7        29.84S
MAPLE LAKE     CLOUDY    56  55  95 NE7       29.84F
$$
MNZ037-044-045-052-053-261600-
   East Central Minnesota

CITY           SKY/WX    TMP DP  RH WIND       PRES   REMARKS
PRINCETON      CLOUDY    57  54  88 NE6       29.84S
MORA           CLOUDY    54  50  87 E7        29.86F
CAMBRIDGE      CLOUDY    55  48  76 N7        29.82S
RUSH CITY      CLOUDY    53  53  97 N7        29.84F
MOOSE LAKE     CLOUDY    54  54 100 NE6       29.85S
HINCKLEY       CLOUDY    55  54  94 NE5       29.85S
CLOQUET        CLOUDY    55  54  94 E6        29.86S
MCGREGOR       CLOUDY    57  54  88 NE6       29.86F
$$
MNZ071>073-080-081-089-090-097-098-261600-
   Southwest Minnesota

CITY           SKY/WX    TMP DP  RH WIND       PRES   REMARKS
MONTEVIDEO     CLOUDY    59  54  82 E9        29.85S
GRANITE FALLS  CLOUDY    56  53  87 N7        29.85F
CANBY          CLOUDY    57  53  86 N7        29.86F
MARSHALL       CLOUDY    55  48  76 NE12      29.83S
REDWOOD FALLS  LGT RAIN  56  54  93 N6        29.81F
OLIVIA         CLOUDY    54  52  94 NE10      29.81F
WINDOM         LGT RAIN  55  54  94 N9        29.81F
WORTHINGTON    CLOUDY    55  52  88 N9        29.81F
JACKSON        LGT RAIN  55  55 100 N9        29.80F
TRACY          LGT RAIN  56  55  97 N9        29.83F
SLAYTON        CLOUDY    54  54 100 N10       29.83F
$$
MNZ065>067-074>077-082>085-091>093-261600-
   South Central Minnesota

CITY           SKY/WX    TMP DP  RH WIND       PRES   REMARKS
MANKATO        CLOUDY    59  55  88 NW8       29.81F
NEW ULM        DRIZZLE   55  55 100 NE8       29.80F
ST JAMES       LGT RAIN  59  57  94 N8        29.81S
FAIRMONT       CLOUDY    57  52  82 N9        29.79F
GLENCOE        CLOUDY    58  57  97 N5        29.81S
FARIBAULT      LGT RAIN  61  59  94 CALM      29.81F
OWATONNA       LGT RAIN  61  57  88 CALM      29.81F
WASECA         LGT RAIN  59  57  94 E3        29.81F
ALBERT LEA     RAIN      61  59  94 CALM      29.81S
$$
MNZ078>079-086>088-094>096-261600-
   Southeast Minnesota

CITY           SKY/WX    TMP DP  RH WIND       PRES   REMARKS
ROCHESTER      LGT RAIN  61  58  90 SW7       29.82S
RED WING       CLOUDY    63  63 100 S3        29.79F
STANTON        RAIN      62  59  92 CALM      29.79F
DODGE CENTER   DRIZZLE   63  59  88 SW9       29.81F
WINONA         CLOUDY    61  59  94 SE5       29.82S
AUSTIN         RAIN      61  57  88 CALM      29.80F
PRESTON        RAIN      58  56  94 CALM      29.82F
$$
ABBREVIATIONS USED IN REMARKS
   TC - TEMPERATURES IN CELSIUS
  WCI - WIND CHILL INDEX
   HX - HEAT INDEX
  VSB - VISIBILITY
$$



USA.gov is the U.S. government's official web portal to all federal, state and local government web resources and services.